Location: Radomski Observatory
(40.2854°N, 79.5145°W)
Time: 01:02:23
(UTC-04:00)

Amateur Radio Satellites - All Passes

Search period start: 24 August 2016 00:32
Search period end: 25 August 2016 00:32
Location: Radomski Observatory, 40.2854°N, 79.5145°W

Satellite Date Start Highest point End Downlink Frequencies (MHz)
Time Altitude Azimuth
AISAT 24 Aug 00:45:34 00:49:50 47° 261° (W) 00:54:10 437.250
QB50P1 24 Aug 00:47:10 00:51:23 64° 101° (E) 00:55:33 145.935-145.965
SPROUT 24 Aug 00:49:22 00:53:41 89° 77° (ENE) 00:58:02 437.525
POPSAT HIP 1 24 Aug 00:56:44 01:00:59 82° 103° (ESE) 01:05:11 437.405
UNISAT 6 24 Aug 00:56:49 00:59:20 15° 296° (WNW) 01:01:52 437.425
BUGSAT 1 24 Aug 01:08:15 01:12:11 39° 98° (E) 01:16:02 437.445
UKube-1 24 Aug 01:18:56 01:22:58 38° 262° (W) 01:27:01 .
JAS-2 24 Aug 01:22:26 01:29:02 66° 102° (ESE) 01:36:24 435.910
CUSAT 1 24 Aug 01:22:36 01:24:49 22° 289° (WNW) 01:27:19 437.405
TISAT 1 24 Aug 01:24:48 01:28:53 47° 73° (ENE) 01:32:59 437.305
QB50P2 24 Aug 01:26:12 01:30:12 41° 288° (WNW) 01:34:09 145.880/145.840
POLYITAN 1 24 Aug 01:28:46 01:32:44 41° 288° (WNW) 01:36:40 437.675
DUCHIFAT 1 24 Aug 01:29:58 01:34:00 45° 288° (WNW) 01:37:59 145.980
ITUPSAT 1 24 Aug 01:30:49 01:32:33 12° 60° (ENE) 01:34:17 437.325
VELOX 1 24 Aug 01:35:26 01:38:02 15° 268° (W) 01:40:40 145.980
SO-50 24 Aug 01:36:34 01:41:26 76° 302° (WNW) 01:46:16 436.795
DANDE 24 Aug 01:37:18 01:39:54 64° 280° (W) 01:42:31 436.750
NANOSAT C BR1 24 Aug 01:41:47 01:45:33 32° 290° (WNW) 01:49:15 145.865
O/OREOS (USA 219) 24 Aug 01:43:41 01:48:10 52° 253° (WSW) 01:52:38 437.305
RS-15 24 Aug 01:45:28 01:55:50 42° 107° (ESE) 02:06:39 29.354- 29.394
Oscar 19 24 Aug 01:54:42 01:58:53 24° 94° (E) 02:03:02 437.125/150
SWISSCUBE 24 Aug 02:03:40 02:07:41 28° 68° (ENE) 02:11:44 437.505
GONETS M04 24 Aug 02:08:06 02:14:39 24° 280° (W) 02:21:13
BEESAT 24 Aug 02:20:54 02:25:15 38° 70° (ENE) 02:29:39 436.000
Cosmos 2499 24 Aug 02:22:16 02:26:48 19° 279° (W) 02:31:22 435.465 / 435.565
QB50P1 24 Aug 02:25:12 02:26:35 11° 298° (WNW) 02:27:59 145.935-145.965
Gurwin Techsat 1B 24 Aug 02:30:04 02:34:20 24° 94° (E) 02:38:33 435.225
BUGSAT 1 24 Aug 02:44:32 02:47:13 17° 295° (WNW) 02:49:53 437.445
ITAMSAT 1 24 Aug 03:00:47 03:03:06 13° 90° (E) 03:05:25 435.822/435.867
TISAT 1 24 Aug 03:02:28 03:04:46 14° 268° (W) 03:07:05 437.305
ITUPSAT 1 24 Aug 03:04:57 03:09:43 79° 256° (WSW) 03:14:30 437.325
JAS-2 24 Aug 03:08:36 03:13:39 24° 296° (WNW) 03:19:06 435.910
MOZHAYETS 4 24 Aug 03:14:02 03:17:10 19° 65° (ENE) 03:20:18
AO-7 24 Aug 03:20:07 03:23:45 13° 88° (E) 03:27:24 29.400- 29.500
SO-50 24 Aug 03:20:23 03:22:43 13° 322° (NW) 03:25:02 436.795
Oscar 19 24 Aug 03:33:28 03:38:19 40° 290° (WNW) 03:43:08 437.125/150
PHONESAT 2.4 24 Aug 03:38:10 03:40:16 17° 151° (SSE) 03:42:21 2401.200-2431.200
KKS-1 24 Aug 03:38:48 03:42:33 27° 68° (ENE) 03:46:19 437.445
SWISSCUBE 24 Aug 03:41:15 03:45:24 29° 264° (W) 03:49:33 437.505
RS-15 24 Aug 03:56:22 04:07:46 61° 310° (NW) 04:19:52 29.354- 29.394
BEESAT 24 Aug 03:59:28 04:03:08 22° 266° (W) 04:06:50 436.000
Gurwin Techsat 1B 24 Aug 04:09:25 04:14:24 42° 290° (WNW) 04:19:21 435.225
CUBESAT XI-V 24 Aug 04:23:42 04:25:41 13° 62° (ENE) 04:27:41 437.345
STARS 24 Aug 04:25:59 04:30:09 41° 71° (ENE) 04:34:20 437.465
ITAMSAT 1 24 Aug 04:37:55 04:43:05 72° 286° (WNW) 04:48:14 435.822/435.867
MOZHAYETS 4 24 Aug 04:49:38 04:54:00 43° 261° (W) 04:58:21
AO-7 24 Aug 05:09:25 05:17:46 76° 106° (ESE) 05:26:03 29.400- 29.500
PHONESAT 2.4 24 Aug 05:13:20 05:16:18 65° 167° (SSE) 05:19:17 2401.200-2431.200
KKS-1 24 Aug 05:15:10 05:19:01 28° 264° (W) 05:22:53 437.445
AO-85 24 Aug 05:37:12 05:39:40 13° 107° (ESE) 05:42:06 145.980
Cosmos 2491 24 Aug 05:44:46 05:53:06 44° 74° (ENE) 06:01:24 435.465 / 435.565
CUBESAT XI-V 24 Aug 05:57:55 06:02:28 68° 258° (WSW) 06:07:06 437.345
STARS 24 Aug 06:03:41 06:06:40 18° 267° (W) 06:09:40 437.465
RS-15 24 Aug 06:14:17 06:23:37 25° 340° (NNW) 06:33:14 29.354- 29.394
HORYU 2 24 Aug 06:28:25 06:32:52 86° 103° (ESE) 06:37:16 437.375
Cubesat XI-IV 24 Aug 06:35:27 06:39:05 18° 92° (E) 06:42:42 437.490
GOMX 1 24 Aug 06:43:43 06:48:06 24° 92° (E) 06:52:20 467.674
BRITE-PL 24 Aug 06:45:25 06:51:00 55° 99° (E) 06:56:32 437.365/2234.400
CUTE-I 24 Aug 06:48:10 06:52:28 25° 95° (E) 06:56:45 437.470
PHONESAT 2.4 24 Aug 06:49:40 06:52:40 84° 358° (N) 06:55:40 2401.200-2431.200
NOAA 18 24 Aug 06:53:05 06:57:29 24° 95° (E) 07:01:51 137.9125
YUBILEINY 24 Aug 06:59:19 07:07:48 54° 90° (E) 07:16:18 435.215
NOAA 15 24 Aug 07:02:37 07:07:41 43° 99° (E) 07:12:43 137.62
AO-7 24 Aug 07:03:21 07:09:44 26° 305° (NW) 07:16:06 29.400- 29.500
DOVE 4 24 Aug 07:11:53 07:15:32 19° 91° (E) 07:19:02 437.250
AO-85 24 Aug 07:14:14 07:19:35 82° 302° (WNW) 07:24:39 145.980
STRAND 1 24 Aug 07:14:59 07:19:48 44° 71° (ENE) 07:24:37 437.568
LilacSat-2 24 Aug 07:24:21 07:28:05 58° 100° (E) 07:31:46 437.200
Cosmos 2491 24 Aug 07:41:49 07:49:49 41° 273° (W) 07:57:49 435.465 / 435.565
HO-68 24 Aug 07:46:45 07:50:15 14° 89° (E) 07:53:44 435.675
Cosmos 2504 24 Aug 07:53:25 08:01:21 43° 89° (E) 08:08:49 435.465 / 435.565
Cubesat XI-IV 24 Aug 08:14:17 08:19:28 54° 288° (WNW) 08:24:37 437.490
GOMX 1 24 Aug 08:21:09 08:26:18 43° 290° (WNW) 08:31:16 467.674
CINEMA 3 24 Aug 08:22:20 08:26:08 25° 94° (E) 08:29:47 145.822/145.860
BRITE-PL 24 Aug 08:24:45 08:29:00 22° 296° (WNW) 08:33:15 437.365/2234.400
PHONESAT 2.4 24 Aug 08:26:05 08:28:57 44° 199° (SSW) 08:31:50 2401.200-2431.200
CUTE-I 24 Aug 08:27:41 08:32:37 40° 291° (WNW) 08:37:33 437.470
SEEDS 24 Aug 08:27:48 08:30:08 14° 92° (E) 08:32:27 437.485
SO-50 24 Aug 08:29:54 08:32:06 13° 38° (NE) 08:34:15 436.795
RS-15 24 Aug 08:32:47 08:42:07 24° 16° (NNE) 08:51:29 29.354- 29.394
NOAA 18 24 Aug 08:33:08 08:38:18 43° 291° (WNW) 08:43:24 137.9125
CANX-2 24 Aug 08:39:41 08:43:31 33° 97° (E) 08:47:21 2200.000
NOAA 15 24 Aug 08:42:59 08:47:11 24° 295° (WNW) 08:51:22 137.62
CUTE 1.7 + AOD 2 24 Aug 08:46:37 08:50:28 34° 97° (E) 08:54:19 437.475
DOVE 4 24 Aug 08:48:33 08:53:29 47° 288° (WNW) 08:58:10 437.250
STRAND 1 24 Aug 08:55:18 08:59:08 21° 266° (W) 09:03:01 437.568
YUBILEINY 24 Aug 08:57:11 09:04:55 33° 290° (WNW) 09:12:43 435.215
AO-85 24 Aug 08:57:50 09:00:45 15° 320° (NW) 09:03:35 145.980
PRISM 24 Aug 09:04:56 09:08:57 66° 75° (ENE) 09:13:03 437.425
CUBEBUG 2 24 Aug 09:07:54 09:11:07 20° 93° (E) 09:14:15 437.445
AAUSAT CUBESAT 2 24 Aug 09:09:53 09:13:14 23° 95° (E) 09:16:34 437.432
COMPASS 1 24 Aug 09:13:31 09:17:18 33° 97° (E) 09:21:04 437.405
UWE-3 24 Aug 09:14:37 09:17:12 16° 92° (E) 09:19:46 435.000/436.395/437.385
Oscar 11 24 Aug 09:18:29 09:19:46 11° 90° (E) 09:21:03 145.826/435.025
ANTELSAT 24 Aug 09:21:09 09:22:07 11° 61° (ENE) 09:23:05 437.575/2403.000
FUNcube-1 24 Aug 09:21:22 09:21:34 10° 89° (E) 09:21:46 145.935
HO-68 24 Aug 09:31:40 09:38:54 86° 105° (ESE) 09:46:04 435.675
ZACube-1 24 Aug 09:38:06 09:41:01 18° 93° (E) 09:43:54 437.345
Cosmos 2504 24 Aug 09:46:50 09:54:43 39° 286° (WNW) 10:02:09 435.465 / 435.565
TIGRISAT 24 Aug 09:50:32 09:53:58 21° 67° (ENE) 09:57:20 435.000
CINEMA 3 24 Aug 09:59:16 10:03:15 29° 292° (WNW) 10:07:04 145.822/145.860
SEEDS 24 Aug 10:02:02 10:06:02 44° 287° (WNW) 10:10:02 437.485
PHONESAT 2.4 24 Aug 10:04:20 10:04:50 10° 214° (SSW) 10:05:21 2401.200-2431.200
SO-50 24 Aug 10:08:43 10:13:21 82° 60° (ENE) 10:17:49 436.795
BEESAT 3 24 Aug 10:09:34 10:11:11 12° 109° (ESE) 10:12:49 437.485
CUSAT 1 24 Aug 10:10:50 10:15:18 20° 71° (ENE) 10:20:23 437.405
CANX-2 24 Aug 10:16:02 10:19:10 20° 292° (WNW) 10:22:17 2200.000
UNISAT 6 24 Aug 10:16:44 10:21:04 40° 72° (ENE) 10:25:21 437.425
ISS 24 Aug 10:19:52 10:22:55 37° 137° (SE) 10:25:58 145.825
CUTE 1.7 + AOD 2 24 Aug 10:23:00 10:26:05 20° 293° (WNW) 10:29:08 437.475
AIST 1 24 Aug 10:38:39 10:42:57 71° 279° (W) 10:47:20
CUBEBUG 2 24 Aug 10:44:01 10:47:48 31° 290° (WNW) 10:51:30 437.445
QB50P2 24 Aug 10:44:53 10:46:37 12° 63° (ENE) 10:48:21 145.880/145.840
AAUSAT CUBESAT 2 24 Aug 10:45:09 10:48:40 27° 290° (WNW) 10:52:11 437.432
RS-15 24 Aug 10:46:22 10:58:27 54° 47° (NE) 11:10:19 29.354- 29.394
POLYITAN 1 24 Aug 10:47:20 10:49:09 12° 63° (ENE) 10:50:57 437.675
DUCHIFAT 1 24 Aug 10:48:40 10:49:48 11° 62° (ENE) 10:50:56 145.980
COMPASS 1 24 Aug 10:49:35 10:52:38 20° 292° (WNW) 10:55:41 437.405
UWE-3 24 Aug 10:49:55 10:53:52 39° 288° (WNW) 10:57:44 435.000/436.395/437.385
Oscar 11 24 Aug 10:52:01 10:56:17 61° 285° (WNW) 11:00:31 145.826/435.025
ANTELSAT 24 Aug 10:53:31 10:58:10 83° 259° (W) 11:02:45 437.575/2403.000
FUNcube-1 24 Aug 10:54:07 10:58:14 61° 285° (WNW) 11:02:17 145.935
HUMSAT D 24 Aug 10:58:44 11:02:20 29° 97° (E) 11:05:54 437.325/437.525
NANOSAT C BR1 24 Aug 10:58:56 11:01:28 16° 65° (ENE) 11:04:00 145.865
ZACube-1 24 Aug 11:13:38 11:17:24 34° 289° (WNW) 11:21:08 437.345
BEESAT 2 24 Aug 11:18:33 11:22:12 37° 116° (ESE) 11:25:53 435.950
GONETS M04 24 Aug 11:18:40 11:23:05 15° 76° (ENE) 11:27:32
HO-68 24 Aug 11:21:00 11:25:42 19° 304° (NW) 11:30:23 435.675
DELFI C3 24 Aug 11:21:57 11:25:55 63° 285° (WNW) 11:29:51 145.870
TIGRISAT 24 Aug 11:26:01 11:30:23 39° 262° (W) 11:34:40 435.000
JAS-2 24 Aug 11:36:46 11:40:39 22° 63° (ENE) 11:44:41 435.910
QB50P1 24 Aug 11:38:48 11:42:53 44° 72° (ENE) 11:46:57 145.935-145.965
BEESAT 3 24 Aug 11:44:33 11:48:22 53° 305° (NW) 11:52:14 437.485
AUBIESAT-1 24 Aug 11:45:16 11:48:18 20° 98° (E) 11:51:08 437.475
PCSat 24 Aug 11:46:05 11:46:42 10° 101° (E) 11:47:19 145.827
M-CUBED/EXP-1 PRIME 24 Aug 11:47:06 11:50:40 26° 99° (E) 11:53:58 437.505
POPSAT HIP 1 24 Aug 11:48:17 11:52:29 55° 74° (ENE) 11:56:41 437.405
CUSAT 1 24 Aug 11:51:27 11:57:30 71° 263° (W) 12:04:57 437.405
UNISAT 6 24 Aug 11:54:34 11:57:54 19° 267° (W) 12:01:13 437.425
ISS 24 Aug 11:56:32 11:59:24 27° 334° (NNW) 12:02:15 145.825
BUGSAT 1 24 Aug 11:57:27 12:01:01 27° 69° (ENE) 12:04:36 437.445
CUBEBUG 1 24 Aug 12:01:10 12:03:55 16° 92° (E) 12:06:37 437.445
DANDE 24 Aug 12:11:06 12:16:06 72° 81° (E) 12:22:45 436.750
ESTCUBE 1 24 Aug 12:11:42 12:15:47 32° 97° (E) 12:19:50 437.505/2401.250
QB50P2 24 Aug 12:17:39 12:21:53 62° 259° (W) 12:26:09 145.880/145.840
DX 1 24 Aug 12:19:52 12:22:03 13° 92° (E) 12:24:12 434.975-435.025
POLYITAN 1 24 Aug 12:20:11 12:24:25 61° 258° (WSW) 12:28:41 437.675
DUCHIFAT 1 24 Aug 12:20:39 12:24:54 70° 258° (WSW) 12:29:10 145.980
NANOSAT C BR1 24 Aug 12:32:42 12:36:48 46° 261° (W) 12:40:56 145.865
HUMSAT D 24 Aug 12:34:42 12:37:47 21° 292° (WNW) 12:40:50 437.325/437.525
AISAT 24 Aug 12:36:15 12:40:18 32° 97° (E) 12:44:17 437.250
SPROUT 24 Aug 12:37:07 12:39:43 16° 92° (E) 12:42:17 437.525
BEESAT 2 24 Aug 12:57:08 13:00:09 20° 313° (NW) 13:03:12 435.950
AIST 2 24 Aug 12:58:09 13:00:56 18° 111° (ESE) 13:03:44 435.215
RS-15 24 Aug 12:59:18 13:10:57 51° 250° (WSW) 13:22:21 29.354- 29.394
Cosmos 2499 24 Aug 13:02:11 13:10:20 60° 92° (E) 13:17:53 435.465 / 435.565
UKube-1 24 Aug 13:06:20 13:10:18 34° 98° (E) 13:14:13 .
GONETS M04 24 Aug 13:09:41 13:18:25 82° 95° (E) 13:27:15
Oscar 19 24 Aug 13:10:54 13:15:29 33° 68° (ENE) 13:20:06 437.125/150
QB50P1 24 Aug 13:16:18 13:18:51 15° 268° (W) 13:21:24 145.935-145.965
50 SAT 24 Aug 13:17:30 13:21:08 77° 284° (WNW) 13:24:46 437.505
AUBIESAT-1 24 Aug 13:19:06 13:22:50 32° 296° (WNW) 13:26:19 437.475
JAS-2 24 Aug 13:20:32 13:25:27 43° 262° (W) 13:30:33 435.910
M-CUBED/EXP-1 PRIME 24 Aug 13:21:33 13:25:06 26° 298° (WNW) 13:28:24 437.505
VELOX 1 24 Aug 13:23:43 13:28:13 79° 284° (WNW) 13:32:39 145.980
PCSat 24 Aug 13:23:47 13:29:12 85° 117° (ESE) 13:34:40 145.827
POPSAT HIP 1 24 Aug 13:26:50 13:28:35 12° 269° (W) 13:30:20 437.405
BUGSAT 1 24 Aug 13:32:48 13:36:18 25° 264° (W) 13:39:52 437.445
ISS 24 Aug 13:35:18 13:36:39 12° 353° (N) 13:38:00 145.825
CUBEBUG 1 24 Aug 13:36:10 13:40:25 45° 288° (WNW) 13:44:37 437.445
CUSAT 1 24 Aug 13:37:45 13:38:54 10° 276° (W) 13:40:06 437.405
ESTCUBE 1 24 Aug 13:48:48 13:52:25 24° 293° (WNW) 13:56:02 437.505/2401.250
Gurwin Techsat 1B 24 Aug 13:50:28 13:55:17 37° 68° (ENE) 14:00:07 435.225
DX 1 24 Aug 13:54:15 13:58:32 53° 287° (WNW) 14:02:48 434.975-435.025
DANDE 24 Aug 13:55:48 13:58:42 15° 269° (W) 14:01:58 436.750
AO-85 24 Aug 14:09:24 14:10:07 10° 35° (NE) 14:10:51 145.980
SPROUT 24 Aug 14:11:48 14:15:51 43° 288° (WNW) 14:19:53 437.525
AISAT 24 Aug 14:13:03 14:16:34 23° 293° (WNW) 14:20:04 437.250
O/OREOS (USA 219) 24 Aug 14:17:36 14:20:41 18° 100° (E) 14:23:46 437.305
ITAMSAT 1 24 Aug 14:17:42 14:21:29 21° 63° (ENE) 14:25:15 435.822/435.867
AO-7 24 Aug 14:18:01 14:24:02 23° 53° (NE) 14:30:02 29.400- 29.500
AIST 2 24 Aug 14:35:12 14:39:05 41° 307° (NW) 14:43:01 435.215
UKube-1 24 Aug 14:42:51 14:46:06 21° 294° (WNW) 14:49:22 .
TISAT 1 24 Aug 14:44:30 14:48:44 89° 292° (WNW) 14:52:55 437.305
Oscar 19 24 Aug 14:50:22 14:54:47 29° 264° (W) 14:59:15 437.125/150
Cosmos 2499 24 Aug 14:57:04 15:03:48 27° 290° (WNW) 15:10:12 435.465 / 435.565
ITUPSAT 1 24 Aug 15:06:21 15:10:24 27° 96° (E) 15:14:26 437.325
PCSat 24 Aug 15:09:54 15:13:20 17° 317° (NW) 15:16:45 145.827
GONETS M04 24 Aug 15:10:06 15:16:19 21° 296° (WNW) 15:22:37
ISS 24 Aug 15:12:15 15:14:09 14° 14° (NNE) 15:16:04 145.825
Gurwin Techsat 1B 24 Aug 15:30:47 15:35:15 27° 265° (W) 15:39:46 435.225
SWISSCUBE 24 Aug 15:41:01 15:45:47 72° 102° (ESE) 15:50:31 437.505
AO-85 24 Aug 15:47:12 15:51:29 72° 57° (ENE) 15:55:26 145.980
O/OREOS (USA 219) 24 Aug 15:55:31 15:59:44 40° 297° (WNW) 16:04:01 437.305
ITAMSAT 1 24 Aug 15:55:33 16:00:34 49° 260° (W) 16:05:36 435.822/435.867
BEESAT 24 Aug 15:58:35 16:03:22 84° 286° (WNW) 16:08:07 436.000
AO-7 24 Aug 16:07:25 16:15:48 86° 252° (WSW) 16:24:14 29.400- 29.500
ITUPSAT 1 24 Aug 16:44:02 16:48:12 31° 292° (WNW) 16:52:21 437.325
MOZHAYETS 4 24 Aug 16:44:51 16:49:13 43° 98° (E) 16:53:35
ISS 24 Aug 16:47:59 16:51:10 50° 33° (NNE) 16:54:21 145.825
KKS-1 24 Aug 17:05:48 17:10:13 56° 101° (E) 17:14:34 437.445
YUBILEINY 24 Aug 17:10:43 17:17:44 26° 67° (ENE) 17:24:40 435.215
SWISSCUBE 24 Aug 17:20:50 17:22:58 13° 299° (WNW) 17:25:05 437.505
HORYU 2 24 Aug 17:25:32 17:29:58 74° 76° (ENE) 17:34:27 437.375
Cosmos 2504 24 Aug 17:49:39 17:51:57 12° 60° (ENE) 17:54:13 435.465 / 435.565
GOMX 1 24 Aug 17:51:08 17:55:05 24° 65° (ENE) 17:59:13 467.674
STARS 24 Aug 17:51:44 17:56:10 87° 103° (ESE) 18:00:33 437.465
CUBESAT XI-V 24 Aug 17:55:06 17:59:16 31° 96° (E) 18:03:25 437.345
BRITE-PL 24 Aug 17:55:40 18:00:14 53° 72° (ENE) 18:05:12 437.365/2234.400
Cubesat XI-IV 24 Aug 17:56:37 18:01:13 30° 67° (ENE) 18:05:48 437.490
AO-7 24 Aug 18:04:47 18:09:37 16° 270° (W) 18:14:29 29.400- 29.500
LilacSat-2 24 Aug 18:05:59 18:09:14 26° 70° (ENE) 18:12:29 437.200
CUTE-I 24 Aug 18:09:17 18:14:12 39° 69° (ENE) 18:19:07 437.470
DOVE 4 24 Aug 18:16:26 18:20:07 20° 64° (ENE) 18:23:53 437.250
HO-68 24 Aug 18:17:37 18:19:56 12° 50° (NE) 18:22:14 435.675
NOAA 18 24 Aug 18:18:29 18:23:44 45° 69° (ENE) 18:28:59 137.9125
NOAA 15 24 Aug 18:22:06 18:27:17 66° 73° (ENE) 18:32:31 137.62
MOZHAYETS 4 24 Aug 18:22:55 18:26:03 19° 295° (WNW) 18:29:11
ISS 24 Aug 18:25:07 18:27:19 17° 229° (SW) 18:29:30 145.825
KKS-1 24 Aug 18:43:53 18:46:17 14° 297° (WNW) 18:48:41 437.445
Cosmos 2491 24 Aug 18:45:08 18:53:25 51° 89° (E) 19:01:44 435.465 / 435.565
YUBILEINY 24 Aug 19:06:34 19:15:16 69° 267° (W) 19:23:53 435.215
CINEMA 3 24 Aug 19:22:49 19:26:53 26° 67° (ENE) 19:30:57 145.822/145.860
STRAND 1 24 Aug 19:27:17 19:30:11 15° 91° (E) 19:33:04 437.568
GOMX 1 24 Aug 19:28:11 19:32:50 42° 263° (W) 19:37:50 467.674
CANX-2 24 Aug 19:32:20 19:35:38 23° 68° (ENE) 19:38:55 2200.000
CUBESAT XI-V 24 Aug 19:32:38 19:36:32 26° 292° (WNW) 19:40:25 437.345
BRITE-PL 24 Aug 19:36:14 19:39:09 16° 271° (W) 19:42:11 437.365/2234.400
Cubesat XI-IV 24 Aug 19:36:20 19:41:10 34° 263° (W) 19:46:01 437.490
BEESAT 2 24 Aug 19:37:08 19:40:17 22° 48° (NE) 19:43:25 435.950
CUTE 1.7 + AOD 2 24 Aug 19:39:07 19:42:27 23° 68° (ENE) 19:45:47 437.475
Cosmos 2504 24 Aug 19:39:28 19:46:47 74° 81° (E) 19:53:55 435.465 / 435.565
LilacSat-2 24 Aug 19:40:36 19:43:31 20° 266° (W) 19:46:25 437.200
CUTE-I 24 Aug 19:49:54 19:54:19 26° 265° (W) 19:58:44 437.470
DOVE 4 24 Aug 19:52:24 19:57:20 52° 261° (W) 20:02:29 437.250
HO-68 24 Aug 19:59:10 20:06:12 61° 69° (ENE) 20:13:17 435.675
NOAA 18 24 Aug 20:00:09 20:04:33 24° 265° (W) 20:08:58 137.9125
AAUSAT CUBESAT 2 24 Aug 20:00:34 20:02:57 15° 66° (ENE) 20:05:21 437.432
BEESAT 3 24 Aug 20:02:00 20:05:59 71° 57° (ENE) 20:09:54 437.485
COMPASS 1 24 Aug 20:04:14 20:07:21 21° 68° (ENE) 20:10:29 437.405
NOAA 15 24 Aug 20:04:39 20:07:31 15° 269° (W) 20:10:23 137.62
CUBEBUG 2 24 Aug 20:05:24 20:08:44 19° 66° (ENE) 20:12:01 437.445
UWE-3 24 Aug 20:11:24 20:13:58 15° 65° (ENE) 20:16:29 435.000/436.395/437.385
PCSat 24 Aug 20:31:18 20:33:03 11° 38° (NE) 20:34:48 145.827
ZACube-1 24 Aug 20:33:47 20:36:30 16° 65° (ENE) 20:39:10 437.345
Cosmos 2491 24 Aug 20:42:44 20:50:28 35° 289° (WNW) 20:58:19 435.465 / 435.565
AIST 1 24 Aug 20:46:32 20:50:16 26° 75° (ENE) 20:53:57
SEEDS 24 Aug 20:52:41 20:56:49 72° 259° (WSW) 21:00:59 437.485
CINEMA 3 24 Aug 20:59:10 21:03:47 37° 263° (W) 21:08:27 145.822/145.860
STRAND 1 24 Aug 21:04:42 21:09:44 61° 287° (WNW) 21:14:46 437.568
CANX-2 24 Aug 21:07:40 21:11:19 29° 264° (W) 21:15:01 2200.000
YUBILEINY 24 Aug 21:07:54 21:10:16 11° 287° (WNW) 21:12:38 435.215
BEESAT 2 24 Aug 21:14:31 21:18:12 35° 245° (WSW) 21:21:51 435.950
CUTE 1.7 + AOD 2 24 Aug 21:14:31 21:18:09 28° 264° (W) 21:21:48 437.475
AIST 2 24 Aug 21:19:39 21:21:50 14° 42° (NE) 21:24:00 435.215
AAUSAT CUBESAT 2 24 Aug 21:34:10 21:38:04 43° 261° (W) 21:42:01 437.432
Cosmos 2504 24 Aug 21:34:48 21:39:11 17° 280° (W) 21:43:33 435.465 / 435.565
COMPASS 1 24 Aug 21:39:06 21:42:43 30° 263° (W) 21:46:23 437.405
CUBEBUG 2 24 Aug 21:40:31 21:45:02 44° 262° (W) 21:49:28 437.445
UWE-3 24 Aug 21:45:25 21:49:58 57° 260° (W) 21:54:26 435.000/436.395/437.385
Oscar 11 24 Aug 21:45:46 21:50:05 87° 262° (W) 21:54:24 145.826/435.025
FUNcube-1 24 Aug 21:48:18 21:52:49 87° 257° (WSW) 21:57:15 145.935
HO-68 24 Aug 21:48:39 21:54:20 25° 266° (W) 22:00:02 435.675
HUMSAT D 24 Aug 21:49:53 21:53:00 20° 68° (ENE) 21:56:05 437.325/437.525
DELFI C3 24 Aug 22:06:54 22:10:46 66° 76° (ENE) 22:14:42 145.870
ZACube-1 24 Aug 22:08:01 22:12:23 49° 261° (W) 22:16:42 437.345
PCSat 24 Aug 22:12:13 22:17:36 60° 58° (ENE) 22:22:56 145.827
PRISM 24 Aug 22:21:56 22:26:06 70° 286° (WNW) 22:30:15 437.425
AIST 1 24 Aug 22:24:09 22:27:45 25° 271° (W) 22:31:20
AUBIESAT-1 24 Aug 22:29:30 22:33:24 28° 63° (ENE) 22:37:20 437.475
M-CUBED/EXP-1 PRIME 24 Aug 22:31:45 22:35:58 35° 65° (ENE) 22:40:16 437.505
ANTELSAT 24 Aug 22:46:42 22:49:54 20° 94° (E) 22:53:02 437.575/2403.000
Cosmos 2499 24 Aug 22:55:35 22:59:55 17° 65° (ENE) 23:04:13 435.465 / 435.565
AIST 2 24 Aug 22:56:38 23:00:49 76° 241° (WSW) 23:04:59 435.215
CUBEBUG 1 24 Aug 22:57:31 22:59:38 13° 63° (ENE) 23:01:45 437.445
ESTCUBE 1 24 Aug 23:10:51 23:14:39 28° 69° (ENE) 23:18:29 437.505/2401.250
DX 1 24 Aug 23:15:50 23:17:30 12° 62° (ENE) 23:19:10 434.975-435.025
TIGRISAT 24 Aug 23:17:58 23:22:04 42° 98° (E) 23:26:05 435.000
GONETS M04 24 Aug 23:20:53 23:29:07 40° 73° (ENE) 23:37:17
HUMSAT D 24 Aug 23:24:40 23:28:24 32° 263° (W) 23:32:09 437.325/437.525
SPROUT 24 Aug 23:31:16 23:33:03 12° 63° (ENE) 23:34:49 437.525
AISAT 24 Aug 23:33:09 23:36:56 28° 68° (ENE) 23:40:44 437.250
UNISAT 6 24 Aug 23:45:19 23:49:39 86° 285° (WNW) 23:53:54 437.425
50 SAT 24 Aug 23:54:09 23:57:29 38° 73° (ENE) 00:00:51 437.505
PCSat 24 Aug 23:56:53 00:00:28 18° 255° (WSW) 00:04:02 145.827
UKube-1 25 Aug 00:00:26 00:04:06 27° 68° (ENE) 00:07:47 .
AUBIESAT-1 25 Aug 00:03:36 00:07:41 32° 259° (W) 00:11:51 437.475
QB50P2 25 Aug 00:03:44 00:07:00 21° 94° (E) 00:10:15 145.880/145.840
DUCHIFAT 1 25 Aug 00:06:11 00:09:10 19° 94° (E) 00:12:08 145.980
POLYITAN 1 25 Aug 00:06:16 00:09:32 22° 94° (E) 00:12:47 437.675
M-CUBED/EXP-1 PRIME 25 Aug 00:06:39 00:10:28 25° 261° (W) 00:14:22 437.505
NANOSAT C BR1 25 Aug 00:17:49 00:21:26 27° 96° (E) 00:25:00 145.865
VELOX 1 25 Aug 00:20:05 00:24:31 85° 77° (ENE) 00:29:00 145.980
SO-50 25 Aug 00:22:22 00:26:38 31° 114° (ESE) 00:30:52 436.795
ANTELSAT 25 Aug 00:22:49 00:26:41 33° 290° (WNW) 00:30:30 437.575/2403.000
